Location: Beneden-Haastrecht
(52.0012°N, 4.7557°E)
Time: 03:20:09
(UTC+00:00)

Cosmos 1503 Rocket - Pass Details

Date: 24 October 2020
Orbit: 752 x 791 km, 74.0° (Epoch: 24 November)

Event Time Altitude Azimuth Distance (km) Brightness Sun altitude
Rises 18:31:23 0° 336° (NNW) 3,224 7.6 -19.7°
Reaches altitude 10° 18:33:47 10° 339° (NNW) 2,299 6.8 -20.1°
Maximum altitude 18:38:57 64° 61° (ENE) 849 3.9 -20.9°
Enters shadow 18:40:29 44° 122° (ESE) 1,058 4.3 -21.1°
